Regional Weather Roundup
Issued by NWS Green Bay, WI

Home | Current Version | Previous Version | Graphics & Text | Print | Product List | Glossary Off
Versions: 1 2 3 4 5 6 7 8 9 10 11 12 13 14 15 16 17 18 19 20 21 22 23 24 25 26 27 28 29 30 31 32 33 34 35 36 37 38 39 40 41 42 43 44 45 46 47 48 49 50

000
ASUS43 KGRB 252211
RWRGRB

NORTH-CENTRAL AND NORTHEAST WISCONSIN REGIONAL WEATHER ROUNDUP
NATIONAL WEATHER SERVICE GREEN BAY WI
500 PM CDT THU MAY 25 2017

WIZ005-009-010>012-018-019-252300-
NORTH CENTRAL WISCONSIN

CITY           SKY/WX    TMP DP  RH WIND       PRES   REMARKS
IRONWOOD       SUNNY     69  48  47 NE7       29.68F
MANITOWISH WTR PTSUNNY   71  46  40 E3        29.67F
ARBOR VITAE    SUNNY     72  45  38 CALM      29.67S
EAGLE RIVER    MOSUNNY   67  43  40 E6        29.68S
LAND O LAKES   MOSUNNY   71  44  38 E9        29.70S
RHINELANDER    MOSUNNY   73  46  38 E9        29.68S
PHILLIPS       PTSUNNY   71  47  41 CALM      29.65F
ANTIGO         MOSUNNY   68  51  53 SE6       29.68S
TOMAHAWK       MOSUNNY   69  48  47 CALM      29.67S
MERRILL        PTSUNNY   72  49  44 CALM      29.67S
$$

WIZ013-073-252300-
NORTHEAST WISCONSIN

CITY           SKY/WX    TMP DP  RH WIND       PRES   REMARKS
IRON MOUNTAIN  CLOUDY    70  43  37 NE6       29.67R
MARINETTE      CLOUDY    65  51  60 E6        29.68R
OCONTO         MOSUNNY   68  49  50 E12       29.66S
$$

WIZ017-030-035>037-045-252300-
CENTRAL WISCONSIN

CITY           SKY/WX    TMP DP  RH WIND       PRES   REMARKS
MEDFORD        SUNNY     69  51  54 S8        29.67R
WAUSAU         PTSUNNY   72  49  44 SW5       29.64F
MOSINEE        MOSUNNY   72  46  40 SW5       29.67F
MARSHFIELD     MOSUNNY   71  50  47 SE6       29.65F
WISC RAPIDS    MOSUNNY   73  48  41 VRB5      29.67S
STEVENS POINT  MOSUNNY   69  48  47 CALM      29.67S
WAUPACA        MOSUNNY   73  50  43 SE3       29.67S
SHAWANO        PTSUNNY   70  51  50 E3        29.66S
CLINTONVILLE   PTSUNNY   70  46  43 E5        29.66S
WAUTOMA        MOSUNNY   70  51  51 SE7       29.67S
$$

WIZ038-039-048-051-252300-
FOX VALLEY

CITY           SKY/WX    TMP DP  RH WIND       PRES   REMARKS
NWS GREEN BAY  SUNNY     69  53  56 NE16      29.67S
APPLETON       NOT AVBL
OSHKOSH        SUNNY     68  52  56 NE13      29.67S
FOND DU LAC    SUNNY     69  51  52 N10       29.67S
$$

WIZ022-050-052-252300-
EAST CENTRAL WISCONSIN

CITY           SKY/WX    TMP DP  RH WIND       PRES   REMARKS
EPHRAIM        FAIR      66  52  61 E6        29.66S
WASHINGTON ISL CLOUDY    63  51  66 E5        29.67R
STURGEON BAY   SUNNY     66  52  60 E8        29.67S
MANITOWOC      SUNNY     64  51  62 NE13      29.67F
SHEBOYGAN      MOSUNNY   63  55  75 NE12      29.67S
$$

LMZ563-521-522-541>543-252300-
LAKESHORE

STATION/POSITION TIME  TEMP    WIND        PRES    VSBY  WAVE
                       AIR SEA DIR/SP/G                  HT/PER
                 (UTC) (F)     (DEG/KT/KT) (MB)    (MI)  (FT/S)
SHEBOYGAN LKSHOR 2200   50      10/ 10/ 12 1004.6R
KEWAUNEE LKSHORE 2148   56      40/  7/ 10 1004.8R
NORTHPORT PIER   2140   59     140/  4/  5 1004.7R
N MID LAKE BUOY  2150   47 41   60/  8/ 10 1005.5R         0
CHAMBERS ISLAND  2130   61      20/  2/  4 1004.4S
MENOMINEE LKSHOR 2148           30/  5/  6 1003.9R
$$




USA.gov is the U.S. government's official web portal to all federal, state and local government web resources and services.